Total_Precipitation_Accumulation
0.89 1.14 1.00 0.69 0.68 0.60 0.49 0.50 0.39 0.23 0.20 0.36 0.35 0.26 0.21 0.21 0.23 0.25 0.26 0.33 0.33 0.36 0.44 0.50 0.63 0.76 0.88 0.99 1.16 1.36 1.52 1.68 1.90 2.06 2.13 2.12 2.07 1.93 1.86 1.81 1.76 1.74 1.78 1.83
0.98 0.88 0.47 0.36 0.44 0.54 0.57 0.63 0.49 0.34 0.25 0.38 0.38 0.27 0.22 0.22 0.24 0.27 0.27 0.34 0.35 0.36 0.44 0.49 0.59 0.75 0.83 0.91 1.03 1.25 1.46 1.59 1.78 1.94 1.96 2.07 2.05 1.98 1.88 1.81 1.78 1.72 1.73 1.82
0.77 0.50 0.32 0.41 0.55 0.69 0.62 0.57 0.49 0.46 0.40 0.44 0.50 0.43 0.24 0.21 0.20 0.24 0.26 0.31 0.33 0.38 0.41 0.43 0.54 0.69 0.81 0.86 0.97 1.14 1.37 1.54 1.66 1.89 2.16 2.35 2.42 2.26 2.12 1.95 1.82 1.71 1.69 1.72
0.57 0.34 0.37 0.50 0.58 0.67 0.68 0.38 0.42 0.51 0.77 0.82 0.66 0.77 0.30 0.21 0.18 0.22 0.26 0.28 0.29 0.34 0.36 0.38 0.48 0.62 0.74 0.83 0.99 1.14 1.24 1.46 1.66 1.80 2.07 2.32 2.43 2.27 1.96 1.85 1.83 1.79 1.73 1.73
0.70 0.38 0.44 0.51 0.44 0.52 0.56 0.40 0.46 0.59 0.90 1.05 0.70 0.81 0.37 0.22 0.22 0.21 0.25 0.27 0.28 0.32 0.36 0.37 0.43 0.53 0.65 0.83 0.99 1.15 1.25 1.41 1.66 1.83 1.94 2.22 2.39 2.29 2.12 2.01 1.90 1.80 1.79 1.77
0.55 0.40 0.49 0.41 0.32 0.42 0.54 0.65 0.76 0.90 1.44 1.74 0.65 0.62 0.44 0.31 0.32 0.26 0.27 0.30 0.31 0.35 0.41 0.39 0.43 0.53 0.61 0.81 0.93 1.13 1.28 1.34 1.58 1.81 1.95 2.09 2.32 2.43 2.33 2.19 2.08 1.93 1.86 1.81
0.71 0.53 0.51 0.44 0.55 0.62 0.87 1.48 2.17 2.37 2.41 1.46 0.35 0.45 0.48 0.32 0.29 0.34 0.38 0.39 0.38 0.39 0.43 0.44 0.46 0.54 0.57 0.75 0.88 1.06 1.28 1.30 1.40 1.59 1.81 1.99 2.18 2.37 2.47 2.32 2.12 2.02 2.00 1.92
0.89 0.72 0.55 0.55 0.68 0.82 0.91 1.31 1.75 1.64 1.09 0.54 0.31 0.44 0.42 0.32 0.29 0.29 0.34 0.37 0.35 0.37 0.42 0.47 0.50 0.53 0.56 0.63 0.75 0.93 1.17 1.26 1.28 1.39 1.56 1.85 2.11 2.30 2.40 2.42 2.21 2.06 1.97 1.87
1.01 0.67 0.39 0.39 0.41 0.56 0.87 0.96 0.88 1.22 0.88 0.57 0.46 0.40 0.31 0.22 0.20 0.21 0.27 0.33 0.35 0.39 0.43 0.49 0.58 0.59 0.60 0.62 0.68 0.83 1.08 1.21 1.20 1.29 1.39 1.59 1.86 2.14 2.29 2.33 2.32 2.19 2.05 1.93
1.19 0.90 0.46 0.42 0.52 0.60 0.70 0.86 1.00 1.55 1.39 0.84 0.51 0.37 0.45 0.34 0.27 0.23 0.27 0.35 0.39 0.40 0.45 0.50 0.61 0.65 0.66 0.64 0.68 0.81 0.98 1.20 1.23 1.24 1.31 1.42 1.58 1.83 2.07 2.26 2.37 2.22 2.12 2.05
1.08 1.18 0.77 0.69 0.90 0.92 0.82 1.07 1.29 1.32 1.07 0.92 0.70 0.58 0.61 0.49 0.41 0.36 0.32 0.35 0.41 0.43 0.49 0.54 0.60 0.67 0.70 0.69 0.71 0.82 0.94 1.12 1.30 1.33 1.30 1.40 1.52 1.72 1.89 1.97 2.13 2.23 2.22 2.13
1.03 1.31 1.01 0.70 0.63 0.64 0.82 0.97 1.13 1.37 1.05 0.66 0.70 0.65 0.51 0.43 0.39 0.38 0.35 0.34 0.41 0.47 0.54 0.58 0.61 0.63 0.67 0.71 0.74 0.77 0.93 1.08 1.21 1.34 1.36 1.40 1.51 1.71 1.85 1.82 1.84 1.97 2.16 2.17
1.52 1.75 1.42 1.07 0.94 0.84 1.00 0.91 0.91 1.03 0.98 0.76 0.68 0.53 0.37 0.32 0.33 0.33 0.35 0.35 0.40 0.46 0.53 0.57 0.56 0.59 0.68 0.71 0.75 0.75 0.82 1.00 1.16 1.30 1.38 1.36 1.49 1.61 1.70 1.72 1.73 1.73 1.88 2.06
1.70 1.73 1.31 1.21 1.10 1.01 0.98 0.79 0.75 1.06 1.24 0.76 0.49 0.40 0.34 0.33 0.34 0.34 0.36 0.37 0.40 0.43 0.48 0.55 0.60 0.62 0.71 0.75 0.73 0.76 0.83 0.96 1.15 1.30 1.43 1.39 1.46 1.59 1.62 1.62 1.65 1.62 1.69 1.85
1.36 1.37 0.70 0.47 0.41 0.53 0.60 0.56 0.60 0.82 0.80 0.71 0.47 0.39 0.42 0.44 0.49 0.48 0.45 0.42 0.38 0.42 0.47 0.52 0.63 0.73 0.74 0.76 0.75 0.81 0.91 0.96 1.12 1.32 1.48 1.49 1.46 1.53 1.58 1.57 1.65 1.67 1.70 1.76
1.12 1.15 0.61 0.38 0.28 0.37 0.45 0.39 0.44 0.50 0.52 0.49 0.39 0.42 0.40 0.41 0.39 0.42 0.44 0.44 0.44 0.47 0.50 0.50 0.57 0.68 0.75 0.78 0.78 0.83 0.94 0.97 1.05 1.22 1.39 1.48 1.47 1.51 1.55 1.52 1.60 1.66 1.69 1.71
1.07 1.09 0.95 0.56 0.29 0.52 0.71 0.53 0.50 0.51 0.52 0.52 0.52 0.49 0.40 0.38 0.40 0.46 0.49 0.51 0.53 0.56 0.56 0.54 0.60 0.66 0.72 0.79 0.79 0.84 0.92 0.96 0.99 1.11 1.29 1.40 1.42 1.44 1.45 1.46 1.53 1.62 1.67 1.62
0.94 1.06 1.30 0.88 0.64 1.05 0.78 0.44 0.45 0.51 0.55 0.55 0.54 0.47 0.44 0.45 0.47 0.46 0.47 0.55 0.60 0.61 0.60 0.60 0.65 0.68 0.68 0.72 0.80 0.83 0.86 0.91 0.94 1.04 1.20 1.37 1.39 1.38 1.37 1.38 1.43 1.50 1.57 1.58
0.59 1.05 1.55 1.26 0.94 0.67 0.44 0.31 0.46 0.57 0.60 0.54 0.47 0.38 0.36 0.37 0.37 0.40 0.41 0.45 0.54 0.58 0.60 0.62 0.67 0.69 0.67 0.68 0.75 0.81 0.85 0.87 0.94 1.08 1.19 1.32 1.40 1.38 1.33 1.35 1.37 1.39 1.39 1.46
0.69 1.12 1.73 1.48 1.12 0.69 0.46 0.24 0.30 0.50 0.68 0.45 0.39 0.37 0.37 0.39 0.48 0.46 0.40 0.38 0.43 0.46 0.51 0.58 0.61 0.62 0.61 0.64 0.69 0.75 0.83 0.85 0.92 1.09 1.20 1.26 1.31 1.33 1.30 1.30 1.34 1.32 1.27 1.29
1.03 1.55 1.71 1.24 1.03 0.52 0.31 0.20 0.26 0.64 0.75 0.40 0.35 0.37 0.39 0.50 0.58 0.48 0.40 0.38 0.41 0.45 0.49 0.52 0.55 0.57 0.61 0.64 0.66 0.71 0.77 0.86 0.92 1.02 1.09 1.16 1.22 1.25 1.20 1.23 1.24 1.24 1.24 1.22
0.77 1.07 1.09 1.02 1.13 0.63 0.28 0.28 0.57 0.69 0.37 0.30 0.29 0.30 0.34 0.37 0.36 0.35 0.37 0.39 0.43 0.47 0.48 0.50 0.53 0.53 0.56 0.60 0.61 0.65 0.75 0.84 0.87 0.88 0.92 1.03 1.14 1.16 1.11 1.18 1.17 1.14 1.19 1.21
0.62 0.86 0.90 0.85 0.75 0.51 0.38 0.46 0.49 0.42 0.34 0.27 0.27 0.26 0.30 0.33 0.34 0.36 0.39 0.40 0.45 0.47 0.48 0.50 0.51 0.49 0.52 0.57 0.58 0.64 0.71 0.76 0.86 0.85 0.87 0.94 1.04 1.11 1.12 1.15 1.14 1.14 1.13 1.14
0.45 0.49 0.64 0.57 0.44 0.37 0.35 0.33 0.29 0.27 0.29 0.27 0.28 0.30 0.31 0.34 0.35 0.39 0.39 0.42 0.47 0.50 0.52 0.53 0.50 0.50 0.55 0.58 0.60 0.63 0.69 0.73 0.81 0.83 0.86 0.91 0.99 1.10 1.10 1.12 1.12 1.13 1.15 1.21
0.39 0.41 0.49 0.47 0.34 0.28 0.24 0.24 0.26 0.23 0.22 0.22 0.23 0.26 0.31 0.33 0.35 0.39 0.42 0.46 0.50 0.53 0.53 0.52 0.49 0.51 0.55 0.57 0.60 0.61 0.65 0.70 0.78 0.81 0.82 0.87 0.93 1.07 1.11 1.13 1.16 1.16 1.13 1.30
0.29 0.38 0.47 0.42 0.32 0.37 0.29 0.24 0.25 0.26 0.24 0.24 0.25 0.26 0.27 0.31 0.36 0.39 0.45 0.49 0.50 0.51 0.49 0.48 0.47 0.49 0.55 0.56 0.59 0.61 0.64 0.69 0.75 0.80 0.82 0.83 0.89 1.02 1.05 1.08 1.17 1.22 1.20 1.23